Preview of NWS' New Version of Forecast
This preview is not operational and should not be used for support decisions.

Regional Weather Roundup (RWR)

Issued by National Weather Service (NWS)

                            
000
ASUS45 KBOI 242010
RWRID 

IDAHO REGIONAL WEATHER ROUNDUP
NATIONAL WEATHER SERVICE BOISE ID
200 PM MDT MON JUN 24 2019

NOTE: "FAIR" INDICATES FEW OR NO CLOUDS BELOW 12000 FEET
WITH NO SIGNIFICANT WEATHER AND/OR OBSTRUCTIONS TO VISIBILITY

IDZ012-014-242100-
SOUTHWEST IDAHO

  
CITY           SKY/WX    TMP DP  RH WIND       PRES   REMARKS
BOISE          SUNNY     73  39  29 N7        29.95F                  
CALDWELL       SUNNY     73  41  31 VRB5      29.94F                  
MOUNTAIN HOME  MOSUNNY   75  35  23 NE5G17    29.93F                  
$$

IDZ016-017-242100-
SOUTHCENTRAL IDAHO

  
CITY           SKY/WX    TMP DP  RH WIND       PRES   REMARKS
BURLEY         SUNNY     73  37  27 W6G16     29.97F                  
JEROME         SUNNY     72  38  29 NW15      29.99F                  
TWIN FALLS     SUNNY     73  37  27 NW12G18   29.98F                  
$$

IDZ019>023-242100-
SOUTHEAST IDAHO

  
CITY           SKY/WX    TMP DP  RH WIND       PRES   REMARKS
IDAHO FALLS    SUNNY     71  31  22 SW26G38   29.95F                  
POCATELLO      MOSUNNY   73  35  25 W22G28    29.99F                  
REXBURG        MOSUNNY   72  33  24 SW16G29   29.94F                  
$$

IDZ006-010-011-018-031-032-242100-
CENTRAL IDAHO MOUNTAINS

  
CITY           SKY/WX    TMP DP  RH WIND       PRES   REMARKS
MCCALL         CLOUDY    61  33  35 VRB5      29.98S                  
HAILEY         MOSUNNY   66  39  37 SW7G20    30.00S                  
STANLEY          N/A     58  31  35 MISG      30.04F                  
SALMON         PTSUNNY   66  38  35 N7        29.92F                  
CHALLIS        PTSUNNY   72  30  21 SW14G25   29.93F                  
$$

IDZ002-004-006-007-026-242100-
NORTHERN IDAHO

  
CITY           SKY/WX    TMP DP  RH WIND       PRES   REMARKS
LEWISTON       SUNNY     73  39  29 MISG      29.92F                  
LOWELL           N/A     73  45  36 N3        29.90F                  
COEUR D'ALENE  CLOUDY    62  42  47 SW6       29.97S                  
MULLAN PASS    CLOUDY    46  35  65 CALM      30.01S                  
$$